This demonstration page uses our WeatherBlox Daily Observations layout. Learn more.

Left ArrowRight Arrow

Hourly Observations for October 1, 2016

Temp ( °F °C ) Dew Point ( °F °C ) Humidity (%) Winds ( mph kmh ) Pressure ( in mb ) Visibility ( mi km ) Precip ( " mm )
12:51 am 00:51 Clear 64 17.8 57 13.9 78 78 ESE 5 7 29.98 1015 10 16 0.00 0.00
1:51 am 01:51 Clear with Light Rain 61 16.1 57 13.9 87 87 Calm 29.97 1015 10 16 0.00 0.03
2:51 am 02:51 Clear 61 16.1 56 13.3 84 84 SSE 7 11 29.97 1015 10 16 0.00 0.03
3:51 am 03:51 Clear 60 15.6 55 12.8 84 84 Calm 29.97 1015 10 16 0.00 0.00
4:51 am 04:51 Clear 58 14.4 55 12.8 90 90 Calm 29.98 1015 10 16 0.00 0.00
5:51 am 05:51 Clear 59 15 55 12.8 87 87 S 3 6 30.00 1016 10 16 0.00 0.00
6:51 am 06:51 Sunny 59 15 56 13.3 90 90 Calm 30.02 1017 10 16 0.00 0.00
7:51 am 07:51 Sunny 64 17.8 56 13.3 75 75 ESE 3 6 30.03 1017 10 16 0.00 0.00
8:51 am 08:51 Sunny 70 21.1 56 13.3 61 61 ESE 5 7 30.02 1017 10 16 0.00 0.00
9:51 am 09:51 Sunny 75 23.9 56 13.3 52 52 VRB 6 9 30.01 1016 10 16 0.00 0.00
10:51 am 10:51 Sunny 78 25.6 56 13.3 47 47 SSW 6 9 30.00 1016 10 16 0.00 0.00
11:51 am 11:51 Sunny 81 27.2 55 12.8 41 41 WSW 5 7 29.97 1015 10 16 0.00 0.00
12:51 pm 12:51 Sunny 85 29.4 53 11.7 33 33 WNW 8 13 29.93 1014 10 16 0.00 0.00
1:51 pm 13:51 Sunny 87 30.6 44 6.7 22 22 W 10 17 29.89 1012 10 16 0.00 0.00
2:51 pm 14:51 Sunny 87 30.6 45 7.2 23 23 W 8 13 29.89 1012 10 16 0.00 0.00
3:51 pm 15:51 Sunny 87 30.6 45 7.2 23 23 WNW 13 20 29.87 1011 10 16 0.00 0.00
4:51 pm 16:51 Sunny 86 30 45 7.2 24 24 NW 9 15 29.86 1011 10 16 0.00 0.00
5:51 pm 17:51 Sunny 83 28.3 43 6.1 24 24 WNW 8 13 29.87 1012 10 16 0.00 0.00
6:51 pm 18:51 Clear 75 23.9 48 8.9 39 39 NW 6 9 29.89 1012 10 16 0.00 0.00
7:51 pm 19:51 Clear 72 22.2 50 10 46 46 NW 8 13 29.90 1013 10 16 0.00 0.03
8:51 pm 20:51 Clear 72 22.2 49 9.4 44 44 NNW 8 13 29.91 1013 10 16 0.00 0.00
9:51 pm 21:51 Clear 70 21.1 50 10 49 49 N 8 13 29.91 1013 10 16 0.00 0.00
10:51 pm 22:51 Clear 65 18.3 51 10.6 61 61 S 3 6 29.93 1013 10 16 0.00 0.00
11:51 pm 23:51 Clear 62 16.7 51 10.6 67 67 SE 5 7 29.93 1014 10 16 0.00 0.03

Powered by AerisWeather